Location: Aalen
(48.8330°N, 10.1000°E)
Time: 01:38:11
(UTC+01:00)

BlueWalker 3 - Pass Details

Date: 11 December 2022
Orbit: 499 x 517 km, 53.2° (Epoch: 26 January)

Event Time Altitude Azimuth Distance (km) Brightness Sun altitude
Rises 17:24:52 0° 295° (WNW) 2,636 6.2 -9.7°
Reaches altitude 10° 17:27:06 10° 292° (WNW) 1,742 5.3 -10.0°
Maximum altitude 17:31:00 64° 212° (SSW) 570 2.4 -10.6°
Drops below altitude 10° 17:34:51 10° 130° (SE) 1,721 4.4 -11.2°
Sets 17:37:02 0° 127° (SE) 2,599 5.3 -11.5°
Enters shadow 17:37:07 - 127° (SE) 2,631 5.3 -11.6°
